Location: Newark
(53.2933°N, 6.3959°W)
Time: 00:43:59
(UTC+00:00)

N. Korean satellite - Visible Passes

Search period start: 21 February 2020 00:00
Search period end: 02 March 2020 00:00
Orbit: 456 x 505 km, 97.2° (Epoch: 20 February)

Date Brightness Start Highest point End Pass type
(mag) Time Alt. Az. Time Alt. Az. Time Alt. Az.
21 Feb 10.0 05:08:40 10° NE 05:10:42 14° E 05:12:42 10° ESE visible
21 Feb 6.6 06:40:47 10° N 06:44:30 67° WNW 06:48:11 10° SSW visible
22 Feb 7.1 06:15:14 10° NNE 06:18:58 65° ESE 06:22:39 10° S visible
22 Feb 10.1 18:31:42 10° WSW 18:33:42 14° W 18:35:43 10° NW visible
23 Feb 8.4 05:49:52 10° NNE 05:53:20 35° E 05:56:44 10° SSE visible
24 Feb 9.5 05:24:47 10° NE 05:27:35 20° E 05:30:23 10° SE visible
25 Feb 10.2 05:00:28 10° ENE 05:01:47 11° E 05:03:04 10° ESE visible
25 Feb 6.6 06:31:57 10° NNE 06:35:42 83° WNW 06:39:24 10° SSW visible
26 Feb 7.6 06:06:27 10° NNE 06:10:07 52° E 06:13:45 10° S visible
27 Feb 8.9 05:41:10 10° NNE 05:44:27 29° E 05:47:42 10° SSE visible
28 Feb 9.8 05:16:13 10° NE 05:18:41 17° E 05:21:06 10° SE visible
29 Feb 6.8 06:23:07 10° NNE 06:26:52 81° ESE 06:30:32 10° S visible
29 Feb 10.4 18:40:12 10° WSW 18:41:40 12° W 18:43:08 10° WNW visible
01 Mar 8.1 05:57:40 10° NNE 06:01:14 42° E 06:04:45 10° S visible
